SCP
0 0 0 0 0 0 0 0 0 0 0 0 0 0 0 0 0 0 0 0 0 0 0 0 0 0 0 0 0 0 0 0 0 0 0 0 0 0 0 0 0 0 0
0 0 0 0 0 0 0 0 0 0 0 0 0 0 0 0 0 0 0 0 0 0 0 0 0 0 0 0 0 0 0 0 0 0 0 0 0 0 0 0 0 0 0
0 0 0 0 0 0 0 0 0 0 0 0 0 0 0 0 0 0 0 0 0 0 0 0 0 0 0 0 0 0 0 0 0 0 0 0 0 0 0 0 0 0 0
0 0 0 0 0 0 0 0 0 0 0 0 0 0 0 0 0 0 0 0 0 0 0 0 0 0 0 0 0 0 0 0 0 0 0 0 0 0 0 0 0 0 0
0 0 0 0 0 0 0 0 0 0 0 0 0 0 0 0 0 0 0 0 0 0 0 0 0 0 0 0 0 0 0 0 0 0 0 0 0 0 0 0 0 0 0
0 0 0 0 0 0 0 0 0 0 0 0 0 0 0 0 0 0 0 0 0 0 0 0 0 0 0 0 0 0 0 0 0 0 0 0 0 0 0 0 0 0 0
0 0 0 0 0 0 0 0 0 0 0 0 0 0 0 0 0 0 0 0 0 0 0 0 0 0 0 0 0 0 0 0 0 0 0 0 0 0 0 0 0 0 0
0 0 0 0 0 0 0 0 0 0 0 0 0 0 0 0 0 0 0 0 0 0 0 0 0 0 0 0 0 0 0 0 0 0 0 0 0 0 0 0 0 0 0
0 0 0 0 0 0 0 0 0 0 0 0 0 0 0 0 0 0 0 0 0 0 0 0 0 0 0 0 0 0 0 0 0 0 0 0 0 0 0 0 0 0 0
0 0 0 0 0 0 0 0 0 0 0 0 0 0 0 0 0 0 0 0 0 0 0 0 0 0 0 0 0 0 0 0 0 0 0 0 0 0 0 0 0 0 0
0 0 0 0 0 0 0 0 0 0 0 0 0 0 0 0 0 0 0 0 0 0 0 0 0 0 0 0 0 0 0 0 0 0 0 0 0 0 0 0 0 0 0
0 0 0 0 0 0 0 0 0 0 0 0 0 0 0 0 0 0 0 0 0 0 0 0 0 0 0 0 0 0 0 0 0 0 0 0 0 0 0 0 0 0 0
0 0 0 0 0 0 0 0 0 0 0 0 0 0 0 0 0 0 0 0 0 0 0 0 0 0 0 0 0 0 0 0 0 0 0 0 0 0 0 0 0 0 0
0 0 0 0 0 0 0 0 0 0 0 0 0 0 0 0 0 0 0 0 0 0 0 0 0 0 0 0 0 0 0 0 0 0 0 0 0 0 0 0 0 0 0
0 0 0 0 0 0 0 0 0 0 0 0 0 0 0 0 0 0 0 0 0 0 0 0 0 0 0 0 0 0 0 0 0 0 0 0 0 0 0 0 0 0 0
0 0 0 0 0 0 0 0 0 0 0 0 0 0 0 0 0 0 0 0 0 0 0 0 0 0 0 0 0 0 0 0 0 0 0 0 0 0 0 0 0 0 0
0 0 0 0 0 0 0 0 0 0 0 0 0 0 0 0 0 0 0 0 0 0 0 0 0 0 0 0 0 0 0 0 0 0 0 0 0 0 0 0 0 0 0
0 0 0 0 0 0 0 0 0 0 0 0 0 0 0 0 0 0 0 0 0 0 0 0 0 0 0 0 0 0 0 0 0 0 0 0 0 0 0 0 0 0 0
0 0 0 0 0 0 0 0 0 0 0 0 0 0 0 0 0 0 0 0 0 0 0 0 0 0 0 0 0 0 0 0 0 0 0 0 0 0 0 0 0 0 0
0 0 0 0 0 0 0 0 0 0 0 0 0 0 0 0 0 0 0 0 0 0 0 0 0 0 0 0 0 0 0 0 0 0 0 0 0 0 0 0 0 0 0
0 0 0 0 0 0 0 0 0 0 0 0 0 0 0 0 0 0 0 0 0 0 0 0 0 0 0 0 0 0 0 0 0 0 0 0 0 0 0 0 0 0 0
0 0 0 0 0 0 0 0 0 0 0 0 0 0 0 0 0 0 0 0 0 0 0 0 0 0 0 0 0 0 0 0 0 0 0 0 0 0 0 0 0 0 0
0 0 0 0 0 0 0 0 0 0 0 0 0 0 0 0 0 0 0 0 0 0 0 0 0 0 0 0 0 0 0 0 0 0 0 0 0 0 0 0 0 0 0
0 0 0 0 0 0 0 0 0 0 0 0 0 0 0 0 0 0 0 0 0 0 0 0 0 0 0 0 0 0 0 0 0 0 0 0 0 0 0 0 0 0 0
0 0 0 0 0 0 0 0 0 0 0 0 0 0 0 0 0 0 0 0 0 0 0 0 0 0 0 0 0 0 0 0 0 0 0 0 0 0 0 0 0 0 0
0 0 0 0 0 0 0 0 0 0 0 0 0 0 0 0 0 0 0 0 0 0 0 0 0 0 0 0 0 0 0 0 0 0 0 0 0 0 0 0 0 0 0
Wind_Speed
4 4 3 3 3 3 3 4 3 3 3 3 3 3 2 2 2 1 1 1 1 0 0 0 0 0 1 1 1 1 0 1 2 2 1 2 3 4 5 4 4 4 5
4 3 4 3 3 3 4 4 3 3 3 3 3 3 3 3 2 3 2 2 2 1 1 1 1 0 0 1 0 0 0 1 2 2 2 2 2 3 4 4 5 5 4
3 3 3 3 4 4 5 4 4 4 3 3 3 4 4 3 3 3 3 3 2 2 2 2 2 1 1 1 1 1 1 1 1 1 2 1 2 2 3 4 4 4 5
3 3 4 5 5 5 5 4 4 4 4 4 4 4 4 4 4 4 3 3 3 3 3 3 3 3 3 2 2 2 1 1 1 1 2 2 2 2 2 3 4 3 4
3 4 5 5 4 4 4 4 4 4 5 4 4 4 4 4 4 4 4 4 4 3 3 3 4 4 5 4 3 2 2 2 1 2 2 2 2 2 2 2 4 4 4
4 5 4 4 3 4 5 4 4 4 4 4 5 5 5 5 8 9 6 4 4 4 4 4 4 4 5 6 6 5 4 3 3 2 2 3 3 3 3 3 3 4 4
4 4 4 4 4 4 4 4 5 5 4 5 5 5 6 7 10 10 9 5 4 5 4 4 4 4 5 3 5 6 5 6 6 4 4 4 3 3 3 3 3 3 4
4 4 4 4 4 4 4 5 5 4 5 5 5 6 6 7 11 11 10 5 4 5 5 5 5 4 4 4 3 3 3 4 4 3 4 5 4 4 4 3 4 4 4
5 5 5 4 5 4 5 6 5 4 5 5 4 5 6 7 11 11 10 4 4 5 5 5 5 5 8 8 5 4 4 4 6 7 7 7 8 7 4 2 2 3 4
6 5 5 4 5 5 6 5 4 4 5 5 5 5 6 7 10 11 10 4 4 5 4 5 9 9 10 10 5 5 5 5 4 3 4 5 5 5 6 2 2 2 3
5 5 4 4 5 6 5 4 4 4 4 4 5 5 5 7 9 12 12 5 5 5 5 4 5 10 11 11 9 6 8 6 3 4 3 3 3 3 3 3 3 3 3
4 5 5 5 5 4 4 4 4 4 4 4 4 5 4 5 8 10 13 12 9 6 6 5 5 10 11 11 8 9 10 7 2 3 3 3 3 3 3 3 4 4 5
4 5 5 5 4 4 4 4 3 4 4 4 4 5 5 4 6 12 13 13 13 7 6 9 10 11 10 8 9 10 7 3 3 4 4 4 3 3 3 3 3 4 5
5 5 5 4 4 4 4 4 4 4 5 5 5 6 5 4 4 4 5 6 9 8 6 8 11 11 8 8 7 5 3 4 4 4 4 3 2 2 3 2 3 3 4
5 5 5 4 4 4 4 5 6 6 7 7 6 5 5 6 8 10 6 5 5 6 4 3 3 3 4 3 3 4 3 3 4 3 3 3 3 3 3 3 3 3 4
5 5 4 4 4 4 4 5 8 9 12 14 12 10 8 11 12 12 13 12 12 11 6 4 5 5 5 5 5 4 4 4 4 4 4 4 4 4 4 3 3 4 5
6 5 4 4 4 4 4 4 5 6 9 12 13 13 12 12 12 12 12 12 12 11 6 5 5 5 5 5 5 4 5 4 4 4 4 4 4 4 4 4 4 4 5
6 6 6 5 5 5 5 5 5 5 5 5 7 12 13 12 12 11 11 8 6 7 5 5 5 5 5 5 5 4 4 4 4 4 4 4 4 4 4 4 4 5 5
5 5 5 5 5 5 4 4 4 5 5 5 4 6 9 10 10 11 9 5 5 5 5 5 5 5 5 5 5 4 4 4 4 4 4 4 4 4 5 5 5 9 8
5 8 7 4 4 4 4 5 5 5 5 5 6 5 4 4 4 5 5 4 5 5 5 5 5 5 4 4 4 4 5 5 5 4 4 4 4 4 5 6 6 6 6
5 6 8 5 5 5 5 5 5 5 6 6 6 6 8 5 5 5 5 5 5 5 5 5 4 4 4 4 4 5 5 5 5 5 5 5 4 5 5 5 6 6 6
4 5 4 5 5 5 5 5 5 6 6 7 5 6 11 6 5 5 5 5 5 5 4 4 4 4 4 4 5 5 5 5 5 5 5 5 5 5 5 5 6 6 6
4 5 5 5 5 7 7 5 5 6 6 6 5 5 5 5 5 5 5 5 4 4 4 4 4 4 4 4 4 5 5 6 5 5 5 5 5 5 5 6 7 7 7
5 5 6 5 5 5 5 5 5 6 6 6 5 5 5 5 5 5 5 4 4 4 4 4 4 5 6 5 4 4 5 5 4 5 6 6 6 5 5 6 6 7 7
5 5 6 6 6 5 5 6 6 5 6 5 5 5 4 4 5 5 4 4 4 4 5 4 4 5 6 7 6 5 7 9 8 5 5 5 6 6 6 7 6 7 7
5 6 6 5 6 6 6 6 6 6 5 5 5 5 5 5 4 4 3 3 4 4 4 4 5 5 6 5 6 8 9 10 10 10 6 4 5 6 6 6 7 7 8
Wind_Direction
235 234 239 240 232 224 220 227 227 226 220 217 216 216 222 226 216 193 218 230 213 273 301 125 324 332 3 340 343 356 0 180 232 278 298 331 343 342 338 337 334 339 336
232 230 236 239 232 229 233 232 224 223 221 218 214 216 222 222 213 204 213 214 211 222 238 224 266 277 337 313 322 327 288 224 204 263 291 314 311 318 324 330 337 341 329
232 233 241 240 234 236 238 233 225 221 224 223 215 218 223 222 217 214 208 212 214 219 221 217 234 217 247 253 249 259 267 271 204 235 278 287 293 309 323 322 324 325 326
229 234 243 242 237 238 236 230 226 219 219 225 223 224 224 222 220 218 211 212 215 221 221 221 224 217 227 232 241 242 229 230 228 243 269 281 284 295 315 315 321 324 320
232 242 248 248 243 241 239 235 228 221 223 223 225 229 228 223 222 215 214 214 215 223 228 229 231 230 233 233 231 223 211 215 228 245 267 280 288 307 309 300 309 313 306
237 247 253 252 247 241 239 235 229 228 227 222 226 227 230 232 233 231 223 216 217 221 231 238 242 247 249 256 258 252 228 215 221 229 250 260 268 268 278 295 304 320 311
243 254 255 249 248 246 241 235 231 229 224 227 230 226 230 235 238 240 234 221 218 225 229 233 240 238 250 246 262 272 270 262 247 227 235 244 251 249 261 277 277 280 278
248 252 254 251 252 253 244 239 236 227 224 229 232 231 232 237 239 240 239 227 221 226 226 226 229 238 238 234 232 243 250 260 259 246 232 239 241 239 234 251 261 276 271
258 257 254 248 252 252 248 245 236 225 230 230 230 228 231 241 240 241 239 221 227 235 233 228 227 232 245 248 238 237 249 260 267 261 258 262 270 275 273 267 280 297 296
260 259 255 246 246 249 249 247 236 226 233 234 237 230 230 238 240 242 237 218 227 238 239 236 239 240 246 249 233 227 242 249 246 261 265 274 277 281 282 249 233 254 279
264 265 262 252 246 248 249 242 235 231 235 236 242 241 235 238 245 244 240 221 222 231 236 237 238 247 251 251 245 231 242 247 230 237 248 255 255 252 253 238 223 221 237
268 267 266 261 254 250 246 246 234 225 233 241 246 256 248 245 245 245 244 238 231 227 234 235 237 248 253 255 253 247 252 253 231 234 245 248 249 253 252 246 240 236 236
275 272 270 268 259 249 239 241 238 226 230 240 239 251 257 245 245 246 247 246 242 234 234 239 246 251 253 254 254 255 253 235 226 240 249 250 241 242 247 255 256 257 260
274 276 273 268 266 256 244 233 228 227 232 237 239 246 253 249 240 239 242 247 246 242 240 246 252 254 248 245 249 250 238 228 231 239 246 250 245 242 247 253 268 281 284
273 273 273 265 262 262 252 239 235 231 224 231 236 234 240 251 246 240 238 235 228 231 230 226 227 231 230 230 232 233 229 233 243 235 239 249 253 254 258 257 257 268 268
270 272 268 268 265 260 265 277 253 245 252 249 246 242 244 248 259 253 248 247 246 243 234 226 228 226 229 230 233 235 231 232 233 233 238 243 251 253 259 257 255 258 269
257 264 265 262 260 259 256 259 278 275 257 255 253 251 252 256 258 256 252 249 247 240 233 229 229 228 229 228 229 231 235 233 228 231 237 238 244 252 256 259 259 263 268
258 259 259 256 253 253 250 248 250 261 274 273 260 257 259 258 257 255 252 247 243 231 224 228 230 230 228 228 229 231 235 233 230 234 235 236 236 244 253 256 257 261 270
260 259 255 255 253 251 249 247 248 249 256 266 272 267 258 259 256 253 244 227 229 233 229 229 228 228 229 228 228 228 228 230 230 229 233 233 233 239 250 253 258 267 271
258 260 261 257 256 253 248 247 248 248 252 253 255 257 254 246 245 244 232 224 227 232 230 230 229 227 226 226 226 227 229 228 228 230 234 234 234 238 248 253 257 264 267
258 262 262 260 252 249 249 248 248 248 250 253 253 249 244 240 241 241 239 232 230 231 229 228 226 224 224 223 223 226 228 231 229 228 231 233 233 241 247 252 257 261 267
252 256 253 252 254 253 254 250 250 251 252 255 260 257 252 245 239 241 239 237 232 228 224 220 222 221 218 218 222 223 227 230 230 229 233 234 235 240 246 252 257 263 268
250 256 260 258 254 261 265 254 250 251 253 253 254 253 248 240 238 239 240 235 229 227 219 214 221 227 226 222 219 217 222 228 227 223 229 237 241 243 247 254 259 265 268
247 252 258 261 258 254 256 258 255 254 254 254 252 250 248 245 243 241 237 232 225 219 216 216 223 230 231 229 226 222 223 227 224 224 224 233 243 250 252 257 260 264 268
247 250 254 257 258 258 259 260 259 256 256 255 253 251 248 244 244 242 233 224 218 221 224 224 226 229 231 231 230 229 236 241 241 236 230 235 241 248 254 258 262 267 268
251 252 255 257 257 256 257 259 260 257 256 254 251 248 244 241 241 236 225 217 219 223 225 226 228 232 234 235 234 236 243 247 248 249 247 241 243 250 254 260 262 265 268